Location: Unspecified
(0.0000°N, 0.0000°E)
Time: 17:01:00
(UTC+02:00)

ARIANE DEB (SPELDA) - Visible Passes

Search period start: 27 June 2016 00:00
Search period end: 07 July 2016 00:00
Orbit: 304 x 33029 km, 3.6° (Epoch: 26 June)

Date Brightness Start Highest point End Pass type
(mag) Time Alt. Az. Time Alt. Az. Time Alt. Az.
27 Jun 6.1 04:17:45 16° E 04:17:45 16° E 04:20:09 10° E visible
27 Jun 5.0 14:42:39 10° W 16:17:02 32° W 23:16:23 61° WSW visible
29 Jun 5.5 04:39:10 28° E 04:39:10 28° E 04:46:08 10° E visible
29 Jun 9.9 15:14:24 10° W 16:39:23 25° W 19:45:12 10° W visible
29 Jun 5.5 23:17:18 10° W 23:37:50 43° WSW 23:37:50 43° WSW visible
01 Jul 4.8 05:00:30 46° ENE 05:00:30 46° ENE 05:13:49 10° E visible
01 Jul 10.2 15:51:40 10° W 17:01:21 18° W 19:04:12 10° W visible
01 Jul 6.0 23:48:22 10° W 23:59:09 29° W 23:59:09 29° W visible
03 Jul 4.2 05:21:45 68° NE 05:21:45 68° NE 05:44:39 10° E visible
03 Jul 9.7 09:19:10 10° E 12:22:50 25° E 13:47:28 10° E visible
04 Jul 6.4 00:15:58 10° W 00:20:23 18° W 00:20:23 18° W visible
05 Jul 4.1 05:42:53 65° NW 05:43:50 74° N 14:19:00 10° E visible
